CAPE
nan nan 0 nan nan nan nan nan nan nan nan nan nan nan nan nan nan nan nan nan nan nan nan nan nan nan nan nan nan nan nan nan nan nan nan nan nan nan 0 0 0 1 2 4 4 7 8 10 10 11 13 15 16 16 17 18 18 22 23 27 27 30 30 33 33 35 39 41 42 42 42 43 40 40 38 40 42 42 45 46 46 48 50 52 52 58
nan nan nan nan nan nan nan nan nan nan nan nan nan nan nan nan nan nan nan nan nan nan nan nan nan nan nan nan nan nan nan nan nan nan nan nan nan nan 0 0 0 1 3 5 5 8 10 12 12 13 15 16 16 16 17 18 18 21 21 24 24 26 28 31 31 30 32 33 34 34 37 35 35 35 35 36 38 38 41 43 43 50 51 52 52 59
0 0 0 nan nan nan 0 0 nan nan nan nan nan nan nan nan nan nan nan nan nan nan nan nan nan nan nan nan nan nan nan nan nan nan nan nan nan nan 0 1 1 2 5 9 9 10 12 14 14 15 15 16 16 16 18 18 18 20 20 22 22 22 26 28 28 29 29 28 31 31 31 30 28 28 32 35 38 38 40 45 45 47 48 54 54 59
nan nan 0 0 0 nan nan nan nan nan nan nan nan nan nan nan nan nan nan nan nan nan nan nan nan nan nan nan nan nan nan nan nan nan nan nan nan nan 0 2 2 4 8 9 9 12 13 14 14 15 14 15 16 16 16 18 18 19 20 21 21 22 23 25 25 28 25 27 28 28 25 27 27 27 29 33 38 38 38 39 39 39 41 50 50 60
nan 0 1 1 1 nan nan nan nan nan nan nan nan nan nan nan nan nan nan nan nan nan nan nan nan nan nan nan nan nan nan nan nan nan nan nan nan nan 0 2 2 4 7 9 9 9 10 12 12 12 13 13 13 13 15 18 18 18 20 22 22 24 25 26 26 26 26 27 24 24 26 26 26 26 26 30 33 33 35 38 38 39 40 43 43 55
nan 0 1 1 1 1 nan nan nan nan nan nan nan nan nan nan nan nan nan nan nan nan nan nan nan nan nan nan nan nan nan nan nan nan nan nan nan nan nan 1 1 3 5 8 8 9 9 11 11 12 13 13 16 16 17 19 19 20 25 27 27 29 32 33 33 31 30 29 29 29 27 25 25 25 25 28 29 29 34 37 37 39 38 43 43 46
nan 0 nan nan nan nan nan nan nan nan nan nan nan nan nan nan nan nan nan nan nan nan nan nan nan nan nan nan nan nan nan nan nan nan nan nan nan nan nan nan nan 1 4 5 5 7 8 9 9 12 14 17 19 19 20 23 23 27 28 29 29 30 33 33 33 33 31 30 27 27 24 22 21 21 21 23 24 24 29 34 34 41 40 44 44 44
nan nan nan nan nan nan nan nan nan nan nan nan nan nan nan nan nan nan nan nan nan nan nan nan nan nan nan nan nan nan nan nan nan nan nan nan nan nan nan nan nan 0 1 3 3 5 9 12 12 16 16 18 19 19 21 19 19 19 17 17 17 17 18 17 17 18 17 15 14 14 14 13 15 15 15 16 18 18 20 24 24 34 43 49 49 50
nan nan nan nan nan nan nan nan nan nan nan nan nan nan nan nan nan nan nan nan nan nan nan nan nan nan nan nan nan nan nan nan nan nan nan nan nan nan nan nan nan 0 1 3 3 6 10 11 11 13 13 13 13 13 13 10 10 9 9 10 10 10 10 10 10 10 10 11 12 12 11 12 14 14 16 16 17 17 19 24 24 31 42 52 52 55
nan nan nan nan nan nan nan nan nan nan nan nan nan nan nan nan nan nan nan nan nan nan nan nan nan nan nan nan nan nan nan nan nan nan nan nan nan nan nan nan nan nan 1 3 3 5 6 5 5 5 5 4 4 4 3 3 3 3 3 3 3 3 3 4 4 5 8 9 12 12 12 15 17 17 19 19 19 19 22 24 24 30 38 50 50 55
nan nan nan nan nan nan nan nan nan nan nan nan nan nan nan nan nan nan nan nan nan nan nan nan nan nan nan nan nan nan nan nan nan nan nan nan nan nan nan nan nan nan 0 nan nan nan nan nan nan nan 0 0 0 0 0 nan nan 0 0 0 0 0 1 1 1 4 6 9 12 12 15 17 19 19 22 24 24 24 25 25 25 28 36 45 45 51
nan nan nan nan nan nan nan nan nan nan nan nan nan nan nan nan nan nan nan nan nan nan nan nan nan nan nan nan nan nan nan nan nan nan nan nan nan nan nan nan nan nan nan nan nan nan nan nan nan nan nan nan nan nan nan nan nan nan nan nan nan nan nan 1 1 4 8 11 15 15 18 20 21 21 24 25 25 25 27 26 26 28 32 38 38 45
nan nan nan nan nan nan nan nan nan nan nan nan nan nan nan nan nan nan nan nan nan nan nan nan nan nan nan nan nan nan nan nan nan nan nan nan nan nan nan nan nan nan nan nan nan nan nan nan nan nan nan nan nan nan nan nan nan nan nan nan nan nan 1 3 3 7 11 14 18 18 19 20 23 23 24 26 26 26 28 28 28 29 31 38 38 44
nan nan nan nan nan nan nan nan nan nan nan nan nan nan nan nan nan nan nan nan nan nan nan nan nan nan nan nan nan nan nan nan nan nan nan nan nan nan nan nan nan nan nan nan nan nan nan nan nan nan nan nan nan nan nan nan nan nan nan nan nan 1 3 7 7 11 14 18 20 20 22 22 23 23 24 25 28 28 29 30 30 32 36 40 40 48
nan nan nan nan nan nan nan nan nan nan nan nan nan nan nan nan nan nan nan nan nan nan nan nan nan nan nan nan nan nan nan nan nan nan nan nan nan nan nan nan nan nan nan nan nan nan nan nan nan nan nan nan nan nan nan nan nan nan nan 1 1 3 7 10 10 13 16 18 19 19 20 21 23 23 25 27 28 28 31 34 34 34 39 45 45 47
nan nan nan nan nan nan nan nan nan nan nan nan nan nan nan nan nan nan nan nan nan nan nan nan nan nan nan nan nan nan nan nan nan nan nan nan nan nan nan nan nan nan nan nan nan nan nan nan nan nan nan nan nan nan nan nan nan nan 1 3 3 5 8 10 10 13 15 16 18 18 19 21 23 23 23 26 29 29 31 35 35 37 39 41 41 45
nan nan nan nan nan nan nan nan nan nan nan nan nan nan nan nan nan nan nan nan nan nan nan nan nan nan nan nan nan nan nan nan nan nan nan nan nan nan nan nan nan nan nan nan nan nan nan nan nan nan nan nan nan nan nan nan nan 0 1 3 3 4 7 9 9 12 15 16 18 18 20 21 22 22 26 28 29 29 31 35 35 37 39 42 42 43
nan nan nan nan nan nan nan nan nan nan nan nan nan nan nan nan nan nan nan nan nan nan nan nan nan nan nan nan nan nan nan nan nan nan nan nan nan nan nan nan nan nan nan nan nan nan nan nan nan nan nan nan nan nan nan nan nan 0 1 1 1 3 5 8 8 12 14 18 19 19 19 23 24 24 25 28 29 29 32 34 34 34 38 40 40 40
nan nan nan nan nan nan nan nan nan nan nan nan nan nan nan nan nan nan nan nan nan nan nan nan nan nan nan nan nan nan nan nan nan nan nan nan nan nan nan nan nan nan nan nan nan nan nan nan nan nan nan nan nan nan nan nan nan nan 0 1 1 3 5 7 7 11 12 16 18 18 20 23 23 23 25 26 27 27 30 31 31 33 34 35 35 37
nan nan nan nan nan nan nan nan nan nan nan nan nan nan nan nan nan nan nan nan nan nan nan nan nan nan nan nan nan nan nan nan nan nan nan nan nan nan nan nan nan nan nan nan nan nan nan nan nan nan nan nan nan nan nan nan nan nan 0 1 1 3 4 7 7 9 11 14 15 15 16 19 21 21 25 26 29 29 31 32 32 33 35 36 36 38
nan nan nan nan nan nan nan nan nan nan nan nan nan nan nan nan nan nan nan nan nan nan nan nan nan nan nan nan nan nan nan nan nan nan nan nan nan nan nan nan nan nan nan nan nan nan nan nan nan nan nan nan nan nan nan nan nan nan 0 1 1 2 4 6 6 8 10 11 14 14 16 18 22 22 26 27 29 29 28 31 31 32 34 34 34 37
nan nan nan nan nan nan nan nan nan nan nan nan nan nan nan nan nan nan nan nan nan nan nan nan nan nan nan nan nan nan nan nan nan nan nan nan nan nan nan nan nan nan nan nan nan nan nan nan nan nan nan nan nan nan nan nan nan nan nan 1 1 2 4 6 6 7 9 13 16 16 17 17 20 20 22 23 25 25 27 29 29 31 33 34 34 35
nan nan nan nan nan nan nan nan nan nan nan nan nan nan nan nan nan nan nan nan nan nan nan nan nan nan nan nan nan nan nan nan nan nan nan nan nan nan nan nan nan nan nan nan nan nan nan nan nan nan nan nan nan nan nan nan nan nan 0 1 1 2 3 4 4 6 10 14 15 15 17 18 18 18 19 19 20 20 22 24 24 27 28 32 32 32
nan nan nan nan nan nan nan nan nan nan nan nan nan nan nan nan nan nan nan nan nan nan nan nan nan nan nan nan nan nan nan nan nan nan nan nan nan nan nan nan nan nan nan nan nan nan nan nan nan nan nan nan nan nan nan nan nan nan 0 1 1 1 2 4 4 7 9 13 14 14 15 16 18 18 19 20 19 19 19 21 21 24 26 31 31 32
nan nan nan nan nan nan nan nan nan nan nan nan nan nan nan nan nan nan nan nan nan nan nan nan nan nan nan nan nan nan nan nan nan nan nan nan nan nan nan nan nan nan nan nan nan nan nan nan nan nan nan nan nan nan nan nan nan nan 0 0 0 1 2 5 5 7 8 9 11 11 12 14 16 16 17 19 19 19 21 21 21 22 25 28 28 29
nan nan nan nan nan nan nan 2 5 5 nan nan nan nan nan nan nan nan nan nan nan nan 0 0 0 0 nan nan nan nan nan nan nan nan nan nan nan nan nan nan nan nan nan nan nan nan nan nan nan nan nan nan nan nan nan nan nan nan 0 0 0 1 2 4 4 4 5 6 7 7 9 13 13 13 16 18 20 20 20 20 20 22 25 27 27 28
4 1 5 8 8 8 7 8 10 10 17 3 nan nan nan nan nan nan nan nan nan nan 0 1 1 0 nan nan nan nan nan nan nan nan nan nan nan nan nan nan nan nan nan nan nan nan nan nan nan nan nan nan nan nan nan nan nan nan 0 0 0 1 1 1 1 2 3 4 6 6 8 10 13 13 14 16 19 19 19 20 20 21 24 24 24 27
nan nan 0 0 0 1 2 7 12 12 17 20 22 22 7 nan nan nan 0 nan nan nan nan 0 0 0 nan nan nan nan nan nan nan nan nan nan nan nan nan nan nan nan nan nan nan nan nan nan nan nan nan nan nan nan nan nan nan nan 0 0 0 nan 0 0 0 1 2 3 5 5 7 9 12 12 14 16 17 17 18 19 19 21 24 15 15 4
nan nan nan nan nan nan 1 4 8 8 10 16 22 22 7 nan nan nan nan nan nan nan nan 1 1 0 0 nan nan nan nan nan nan nan nan nan nan nan nan nan nan nan nan nan nan nan nan nan nan nan nan nan nan nan nan nan nan nan nan nan nan nan nan 0 0 1 2 3 4 4 6 8 11 11 13 13 16 16 18 18 18 20 14 4 4 nan
nan nan nan nan nan nan nan nan nan nan 2 5 10 10 9 nan nan nan nan nan nan nan 1 2 2 1 nan nan nan nan nan nan nan nan nan nan nan nan nan nan nan nan nan nan nan nan nan nan nan nan nan nan nan nan nan nan nan nan nan nan nan nan nan 0 0 1 2 2 3 3 5 7 9 9 10 11 12 12 13 16 16 13 2 nan nan nan
nan nan nan nan nan nan nan nan nan nan nan 4 4 4 nan nan nan nan nan nan nan 0 1 1 1 1 0 nan nan nan nan nan nan nan nan nan nan nan nan nan nan nan nan nan nan nan nan nan nan nan nan nan nan nan nan nan nan nan nan nan nan nan nan 0 0 1 1 2 2 2 4 5 6 6 7 7 8 8 10 13 13 8 nan nan nan nan
nan nan nan nan nan nan nan nan nan nan nan nan nan nan nan nan nan nan nan nan nan nan nan 0 0 0 0 1 nan nan nan nan nan nan nan nan nan nan nan nan nan nan nan 0 0 nan nan nan nan nan nan nan nan nan nan nan nan nan nan nan nan nan nan nan nan nan nan 0 1 1 1 1 2 2 2 3 4 4 6 9 9 8 nan nan nan nan
nan nan nan nan nan nan nan nan nan nan nan nan nan nan nan nan nan nan nan nan nan nan nan nan nan 0 0 0 0 0 nan nan nan nan 0 nan nan nan nan nan nan nan nan nan nan nan nan nan nan nan nan nan nan nan nan nan nan nan nan nan nan nan nan nan nan nan nan nan nan nan 0 0 1 1 2 3 4 4 6 8 8 10 12 0 0 1
nan nan nan nan nan nan nan nan nan nan nan nan nan nan nan nan nan nan nan nan nan nan nan nan nan nan nan nan nan nan nan nan nan nan 1 nan nan nan nan nan nan nan nan nan nan nan nan nan nan nan nan nan nan nan nan nan nan nan nan nan nan nan nan nan nan nan nan nan nan nan nan nan nan nan nan 1 2 2 5 8 8 13 19 12 12 6
nan nan nan nan nan nan nan nan nan nan nan nan nan nan nan nan nan nan nan nan nan nan nan nan nan nan nan nan nan nan nan nan nan nan 2 nan nan nan nan nan nan nan nan nan nan nan nan nan nan 0 nan nan nan nan nan nan nan nan nan nan nan nan nan nan nan nan nan nan nan nan nan nan nan nan nan nan 2 2 7 10 10 13 15 20 20 13
nan nan nan nan nan nan nan nan nan nan nan nan nan nan nan nan nan nan nan nan nan nan nan nan nan nan nan nan nan nan nan nan nan nan 2 nan nan nan nan nan nan nan nan nan nan nan nan nan nan 0 0 nan nan nan nan nan nan nan nan nan nan nan nan nan nan nan nan nan nan nan nan nan nan nan nan 1 5 5 8 8 8 8 8 11 11 12
nan nan nan nan nan nan nan nan nan nan nan nan nan nan nan nan nan nan nan nan nan nan nan nan nan nan nan nan nan nan nan nan nan nan 0 0 0 0 nan 0 0 1 nan nan nan 0 nan nan nan nan nan nan nan nan nan nan nan nan nan nan nan nan nan nan nan nan nan nan nan nan nan nan nan nan nan 1 1 1 3 5 5 3 5 7 7 11
nan nan nan nan nan nan nan nan nan nan nan nan nan nan nan nan nan nan nan nan nan nan nan nan nan nan nan nan nan nan nan nan nan nan nan nan nan nan 0 nan nan 2 2 0 0 nan nan nan nan nan nan nan nan nan nan nan nan nan nan nan nan nan nan nan nan nan nan nan nan nan nan nan nan nan nan nan nan nan nan nan nan nan 1 2 2 9
nan nan nan nan nan nan nan nan nan nan nan nan nan nan nan nan nan nan nan nan nan nan nan nan nan nan nan nan nan nan nan nan nan nan nan nan nan nan nan 0 0 0 0 0 0 0 nan nan nan nan nan nan nan nan nan nan nan nan nan nan nan nan nan nan nan nan nan nan nan nan nan nan nan nan nan nan nan nan nan nan nan nan nan nan nan nan
nan nan nan nan nan nan nan nan nan nan nan nan nan nan nan nan nan nan nan nan nan nan nan nan nan nan nan 0 2 2 1 nan nan nan nan nan nan nan nan nan nan 0 0 nan nan nan nan nan nan nan nan nan nan nan nan nan nan nan 0 nan nan nan nan nan nan nan nan nan nan nan nan nan nan nan nan nan nan nan nan nan nan nan nan nan nan nan
nan nan nan nan nan nan nan nan nan nan nan nan nan nan nan nan nan nan nan nan nan nan nan nan nan nan nan nan nan nan nan nan nan nan nan nan nan nan nan nan nan nan nan nan nan nan nan nan nan nan nan nan nan nan nan nan nan 2 4 nan nan nan nan 0 0 nan nan nan nan nan nan nan nan nan nan nan nan nan nan nan nan nan nan nan nan nan
nan nan nan nan nan nan nan nan 0 0 0 nan nan nan nan nan nan nan nan nan nan nan nan nan nan nan nan nan nan nan nan nan nan nan nan nan nan nan nan nan nan nan nan nan nan nan nan nan nan nan nan nan nan nan nan nan nan 0 1 nan nan nan 0 nan nan nan nan nan nan nan nan nan nan nan nan nan nan nan nan nan nan nan nan nan nan nan
nan nan nan nan nan nan nan 1 1 1 nan nan nan nan nan nan nan nan nan nan nan 0 nan nan nan nan nan nan nan nan nan nan nan nan nan nan nan nan nan nan nan nan nan nan nan nan nan nan nan nan nan nan nan nan nan nan nan nan nan 0 0 0 nan nan nan nan nan nan nan nan nan nan nan nan nan nan nan nan nan nan nan nan 0 nan nan nan
nan nan nan nan nan nan nan nan nan nan nan nan 0 0 nan nan nan nan 0 0 0 0 nan nan nan nan nan nan nan nan nan nan nan nan nan nan nan nan nan nan nan nan nan nan nan nan nan nan nan nan nan nan nan nan nan nan nan nan nan 0 0 nan nan nan nan nan nan nan nan nan nan nan nan nan nan nan nan nan nan nan nan nan nan nan nan nan
nan nan 0 1 1 0 nan nan nan nan nan 0 0 0 nan nan 0 0 nan nan nan nan nan 0 0 nan nan nan nan nan nan nan nan nan nan nan 2 2 nan nan nan nan nan nan nan nan nan nan nan nan nan nan nan nan nan nan nan nan 1 2 2 1 0 0 0 0 nan nan nan nan nan nan nan nan nan nan nan nan nan nan nan nan nan nan nan nan
nan nan 1 0 0 0 1 0 0 0 nan nan 0 0 nan nan nan nan nan nan nan nan nan 0 0 nan nan nan nan nan nan nan nan nan nan nan nan nan nan nan nan nan nan nan nan nan nan nan nan nan nan nan nan nan nan nan nan nan nan 1 1 0 0 nan nan nan nan nan nan nan nan nan nan nan nan nan nan nan nan nan nan nan nan nan nan nan
nan 0 0 0 0 0 nan nan nan nan nan nan nan nan nan nan nan nan nan nan nan nan nan 0 0 nan nan nan nan nan nan nan nan nan nan nan nan nan nan nan nan nan nan nan nan nan nan nan nan nan nan nan nan nan nan nan nan nan nan nan nan nan 0 nan nan nan nan nan nan nan nan nan nan nan nan nan nan nan nan nan nan 0 0 1 1 1
0 0 nan nan nan nan nan nan nan nan nan nan nan nan nan nan nan nan nan nan nan 0 2 nan nan nan nan nan nan nan nan nan nan nan nan nan nan nan nan nan nan nan nan nan nan nan nan nan nan nan nan nan nan nan nan nan nan nan nan nan nan nan nan nan nan nan nan nan nan nan nan nan nan nan nan nan nan nan nan 0 0 0 1 1 1 nan
0 nan nan nan nan nan nan nan nan nan nan nan nan nan nan nan 6 6 nan nan nan nan nan nan nan nan nan nan nan nan nan nan nan nan nan nan nan nan nan nan nan nan nan nan nan nan nan nan nan nan nan nan nan nan nan nan nan nan nan nan nan nan nan nan nan nan nan nan nan nan nan nan nan nan nan nan nan nan 0 1 1 1 0 nan nan nan
nan nan nan nan nan nan nan nan nan nan nan nan nan nan nan nan nan nan nan nan nan nan nan nan nan nan nan nan nan nan nan nan nan nan nan nan nan nan nan nan nan nan nan nan nan nan nan nan nan nan 1 nan nan nan nan nan nan nan nan nan nan nan nan nan nan nan nan nan nan nan nan nan nan nan nan nan 1 1 2 1 1 0 nan nan nan nan
nan nan nan nan nan nan nan nan nan nan nan nan nan nan nan nan nan nan nan nan nan nan nan nan nan nan nan nan nan nan nan nan nan nan nan nan nan nan nan nan nan nan nan nan nan nan nan nan nan nan 1 14 4 4 nan nan nan nan nan nan nan nan nan nan nan nan nan nan nan nan nan nan 0 0 2 2 2 2 1 0 0 nan nan nan nan nan
CIN
nan nan -0 nan nan nan nan nan nan nan nan nan nan nan nan nan nan nan nan nan nan nan nan nan nan nan nan nan nan nan nan nan nan nan nan nan nan nan -0 -0 -0 -0 -0 -0 -0 -0 -0 -0 -0 -0 -0 -0 -0 -0 -0 -0 -0 -0 -0 -0 -0 -0 -0 -0 -0 -0 -0 -0 -0 -0 -0 -0 -0 -0 -0 -0 -0 -0 -0 -0 -0 -0 -0 -0 -0 -0
nan nan nan nan nan nan nan nan nan nan nan nan nan nan nan nan nan nan nan nan nan nan nan nan nan nan nan nan nan nan nan nan nan nan nan nan nan nan -0 -0 -0 -0 -0 -0 -0 -0 -0 -0 -0 -0 -0 -0 -0 -0 -0 -0 -0 -0 -0 -0 -0 -0 -0 -0 -0 -0 -0 -0 -0 -0 -0 -0 -0 -0 -0 -0 -0 -0 -0 -0 -0 -0 -0 -0 -0 -0
-0 -0 -0 nan nan nan -0 -0 nan nan nan nan nan nan nan nan nan nan nan nan nan nan nan nan nan nan nan nan nan nan nan nan nan nan nan nan nan nan -0 -0 -0 -0 -0 -0 -0 -0 -0 -0 -0 -0 -0 -0 -0 -0 -0 -0 -0 -0 -0 -0 -0 -0 -0 -0 -0 -0 -0 -0 -0 -0 -0 -0 -0 -0 -0 -0 -0 -0 -0 -0 -0 -0 -0 -0 -0 -0
nan nan -0 -0 -0 nan nan nan nan nan nan nan nan nan nan nan nan nan nan nan nan nan nan nan nan nan nan nan nan nan nan nan nan nan nan nan nan nan -0 -0 -0 -0 -0 -0 -0 -0 -0 -0 -0 -0 -0 -0 -0 -0 -0 -0 -0 -0 -0 -0 -0 -0 -0 -0 -0 -0 -0 -0 -0 -0 -0 -0 -0 -0 -0 -0 -0 -0 -0 -0 -0 -0 -0 -0 -0 -0
nan -0 -0 -1 -1 nan nan nan nan nan nan nan nan nan nan nan nan nan nan nan nan nan nan nan nan nan nan nan nan nan nan nan nan nan nan nan nan nan -0 -0 -0 -0 -0 -0 -0 -0 -0 -0 -0 -0 -0 -0 -0 -0 -0 -0 -0 -0 -0 -0 -0 -0 -0 -0 -0 -0 -0 -0 -0 -0 -0 -0 -0 -0 -0 -0 -0 -0 -0 -0 -0 -0 -0 -0 -0 -0
nan -1 -1 -1 -1 -1 nan nan nan nan nan nan nan nan nan nan nan nan nan nan nan nan nan nan nan nan nan nan nan nan nan nan nan nan nan nan nan nan nan -0 -0 -0 -0 -0 -0 -0 -0 -0 -0 -0 -0 -0 -0 -0 -0 -0 -0 -0 -0 -0 -0 -0 -0 -0 -0 -0 -0 -0 -0 -0 -0 -0 -0 -0 -0 -0 -0 -0 -0 -0 -0 -0 -0 -0 -0 -0
nan -1 nan nan nan nan nan nan nan nan nan nan nan nan nan nan nan nan nan nan nan nan nan nan nan nan nan nan nan nan nan nan nan nan nan nan nan nan nan nan nan -0 -0 -0 -0 -0 -0 -0 -0 -0 -0 -0 -0 -0 -0 -0 -0 -0 -0 -0 -0 -0 -0 -0 -0 -0 -0 -0 -0 -0 -0 -0 -0 -0 -0 -0 -0 -0 -0 -0 -0 -0 -0 -0 -0 -0
nan nan nan nan nan nan nan nan nan nan nan nan nan nan nan nan nan nan nan nan nan nan nan nan nan nan nan nan nan nan nan nan nan nan nan nan nan nan nan nan nan -0 -0 -0 -0 -0 -0 -0 -0 -0 -0 -0 -0 -0 -0 -0 -0 -0 -0 -0 -0 -0 -0 -0 -0 -0 -0 -0 -0 -0 -0 -0 -0 -0 -0 -0 -0 -0 -0 -0 -0 -0 -0 -0 -0 -0
nan nan nan nan nan nan nan nan nan nan nan nan nan nan nan nan nan nan nan nan nan nan nan nan nan nan nan nan nan nan nan nan nan nan nan nan nan nan nan nan nan -0 -0 -0 -0 -0 -0 -0 -0 -0 -0 -0 -0 -0 -0 -0 -0 -0 -0 -0 -0 -0 -0 -0 -0 -0 -0 -0 -0 -0 -0 -0 -0 -0 -0 -0 -0 -0 -0 -0 -0 -0 -0 -0 -0 -0
nan nan nan nan nan nan nan nan nan nan nan nan nan nan nan nan nan nan nan nan nan nan nan nan nan nan nan nan nan nan nan nan nan nan nan nan nan nan nan nan nan nan -0 -0 -0 -0 -0 -0 -0 -0 -0 -0 -0 -0 -0 -0 -0 -0 -0 -0 -0 -0 -0 -0 -0 -0 -0 -0 -0 -0 -0 -0 -0 -0 -0 -0 -0 -0 -0 -0 -0 -0 -0 -0 -0 -0
nan nan nan nan nan nan nan nan nan nan nan nan nan nan nan nan nan nan nan nan nan nan nan nan nan nan nan nan nan nan nan nan nan nan nan nan nan nan nan nan nan nan -4 nan nan nan nan nan nan nan -0 -0 -0 -0 -0 nan nan -0 -0 -0 -0 -0 -0 -0 -0 -0 -0 -0 -0 -0 -0 -0 -0 -0 -0 -0 -0 -0 -0 -0 -0 -0 -0 -0 -0 -0
nan nan nan nan nan nan nan nan nan nan nan nan nan nan nan nan nan nan nan nan nan nan nan nan nan nan nan nan nan nan nan nan nan nan nan nan nan nan nan nan nan nan nan nan nan nan nan nan nan nan nan nan nan nan nan nan nan nan nan nan nan nan nan -0 -0 -0 -0 -0 -0 -0 -0 -0 -0 -0 -0 -0 -0 -0 -0 -0 -0 -0 -0 -0 -0 -0
nan nan nan nan nan nan nan nan nan nan nan nan nan nan nan nan nan nan nan nan nan nan nan nan nan nan nan nan nan nan nan nan nan nan nan nan nan nan nan nan nan nan nan nan nan nan nan nan nan nan nan nan nan nan nan nan nan nan nan nan nan nan -0 -0 -0 -0 -0 -0 -0 -0 -0 -0 -0 -0 -0 -0 -0 -0 -0 -0 -0 -0 -0 -0 -0 -0
nan nan nan nan nan nan nan nan nan nan nan nan nan nan nan nan nan nan nan nan nan nan nan nan nan nan nan nan nan nan nan nan nan nan nan nan nan nan nan nan nan nan nan nan nan nan nan nan nan nan nan nan nan nan nan nan nan nan nan nan nan -0 -0 -0 -0 -0 -0 -0 -0 -0 -0 -0 -0 -0 -0 -0 -0 -0 -0 -0 -0 -0 -0 -0 -0 -0
nan nan nan nan nan nan nan nan nan nan nan nan nan nan nan nan nan nan nan nan nan nan nan nan nan nan nan nan nan nan nan nan nan nan nan nan nan nan nan nan nan nan nan nan nan nan nan nan nan nan nan nan nan nan nan nan nan nan nan -0 -0 -0 -0 -0 -0 -0 -0 -0 -0 -0 -0 -0 -0 -0 -0 -0 -0 -0 -0 -0 -0 -0 -0 -0 -0 -0
nan nan nan nan nan nan nan nan nan nan nan nan nan nan nan nan nan nan nan nan nan nan nan nan nan nan nan nan nan nan nan nan nan nan nan nan nan nan nan nan nan nan nan nan nan nan nan nan nan nan nan nan nan nan nan nan nan nan -0 -0 -0 -0 -0 -0 -0 -0 -0 -0 -0 -0 -0 -0 -0 -0 -0 -0 -0 -0 -0 -0 -0 -0 -0 -0 -0 -0
nan nan nan nan nan nan nan nan nan nan nan nan nan nan nan nan nan nan nan nan nan nan nan nan nan nan nan nan nan nan nan nan nan nan nan nan nan nan nan nan nan nan nan nan nan nan nan nan nan nan nan nan nan nan nan nan nan -0 -0 -0 -0 -0 -0 -0 -0 -0 -0 -0 -0 -0 -0 -0 -0 -0 -0 -0 -0 -0 -0 -0 -0 -0 -0 -0 -0 -0
nan nan nan nan nan nan nan nan nan nan nan nan nan nan nan nan nan nan nan nan nan nan nan nan nan nan nan nan nan nan nan nan nan nan nan nan nan nan nan nan nan nan nan nan nan nan nan nan nan nan nan nan nan nan nan nan nan -0 -0 -0 -0 -0 -0 -0 -0 -0 -0 -0 -0 -0 -0 -0 -0 -0 -0 -0 -0 -0 -0 -0 -0 -0 -0 -0 -0 -0
nan nan nan nan nan nan nan nan nan nan nan nan nan nan nan nan nan nan nan nan nan nan nan nan nan nan nan nan nan nan nan nan nan nan nan nan nan nan nan nan nan nan nan nan nan nan nan nan nan nan nan nan nan nan nan nan nan nan -0 -0 -0 -0 -0 -0 -0 -0 -0 -0 -0 -0 -0 -0 -0 -0 -0 -0 -0 -0 -0 -0 -0 -0 -0 -0 -0 -0
nan nan nan nan nan nan nan nan nan nan nan nan nan nan nan nan nan nan nan nan nan nan nan nan nan nan nan nan nan nan nan nan nan nan nan nan nan nan nan nan nan nan nan nan nan nan nan nan nan nan nan nan nan nan nan nan nan nan -0 -0 -0 -0 -0 -0 -0 -0 -0 -0 -0 -0 -0 -0 -0 -0 -0 -0 -0 -0 -0 -0 -0 -0 -0 -0 -0 -0
nan nan nan nan nan nan nan nan nan nan nan nan nan nan nan nan nan nan nan nan nan nan nan nan nan nan nan nan nan nan nan nan nan nan nan nan nan nan nan nan nan nan nan nan nan nan nan nan nan nan nan nan nan nan nan nan nan nan -0 -0 -0 -0 -0 -0 -0 -0 -0 -0 -0 -0 -0 -0 -0 -0 -0 -0 -0 -0 -0 -0 -0 -0 -0 -0 -0 -0
nan nan nan nan nan nan nan nan nan nan nan nan nan nan nan nan nan nan nan nan nan nan nan nan nan nan nan nan nan nan nan nan nan nan nan nan nan nan nan nan nan nan nan nan nan nan nan nan nan nan nan nan nan nan nan nan nan nan nan -0 -0 -0 -0 -0 -0 -0 -0 -0 -0 -0 -0 -0 -0 -0 -0 -0 -0 -0 -0 -0 -0 -0 -0 -0 -0 -0
nan nan nan nan nan nan nan nan nan nan nan nan nan nan nan nan nan nan nan nan nan nan nan nan nan nan nan nan nan nan nan nan nan nan nan nan nan nan nan nan nan nan nan nan nan nan nan nan nan nan nan nan nan nan nan nan nan nan -0 -0 -0 -0 -0 -0 -0 -0 -0 -0 -0 -0 -0 -0 -0 -0 -0 -0 -0 -0 -0 -0 -0 -0 -0 -0 -0 -0
nan nan nan nan nan nan nan nan nan nan nan nan nan nan nan nan nan nan nan nan nan nan nan nan nan nan nan nan nan nan nan nan nan nan nan nan nan nan nan nan nan nan nan nan nan nan nan nan nan nan nan nan nan nan nan nan nan nan -0 -0 -0 -0 -0 -0 -0 -0 -0 -0 -0 -0 -0 -0 -0 -0 -0 -0 -0 -0 -0 -0 -0 -0 -0 -0 -0 -0
nan nan nan nan nan nan nan nan nan nan nan nan nan nan nan nan nan nan nan nan nan nan nan nan nan nan nan nan nan nan nan nan nan nan nan nan nan nan nan nan nan nan nan nan nan nan nan nan nan nan nan nan nan nan nan nan nan nan -0 -0 -0 -0 -0 -0 -0 -0 -0 -0 -0 -0 -0 -0 -0 -0 -0 -0 -0 -0 -0 -0 -0 -0 -0 -0 -0 -0
nan nan nan nan nan nan nan -4 -1 -1 nan nan nan nan nan nan nan nan nan nan nan nan -19 -9 -9 -4 nan nan nan nan nan nan nan nan nan nan nan nan nan nan nan nan nan nan nan nan nan nan nan nan nan nan nan nan nan nan nan nan -0 -0 -0 -0 -0 -0 -0 -0 -0 -0 -0 -0 -0 -0 -0 -0 -0 -0 -0 -0 -0 -0 -0 -0 -0 -0 -0 -0
-3 -9 -0 -0 -0 -0 -0 -0 -0 -0 -0 -15 nan nan nan nan nan nan nan nan nan nan -14 -6 -6 -6 nan nan nan nan nan nan nan nan nan nan nan nan nan nan nan nan nan nan nan nan nan nan nan nan nan nan nan nan nan nan nan nan -0 -0 -0 -0 -0 -0 -0 -0 -0 -0 -0 -0 -0 -0 -0 -0 -0 -0 -0 -0 -0 -0 -0 -0 -0 -0 -0 -0
nan nan -0 -0 -0 -0 -0 -0 -0 -0 -0 -0 -0 -0 -17 nan nan nan -15 nan nan nan nan -5 -5 -4 nan nan nan nan nan nan nan nan nan nan nan nan nan nan nan nan nan nan nan nan nan nan nan nan nan nan nan nan nan nan nan nan -0 -0 -0 nan -0 -0 -0 -0 -0 -0 -0 -0 -0 -0 -0 -0 -0 -0 -0 -0 -0 -0 -0 -0 -0 -0 -0 -10
nan nan nan nan nan nan -0 -0 -0 -0 -0 -0 -0 -0 -13 nan nan nan nan nan nan nan nan -5 -5 -4 -5 nan nan nan nan nan nan nan nan nan nan nan nan nan nan nan nan nan nan nan nan nan nan nan nan nan nan nan nan nan nan nan nan nan nan nan nan -0 -0 -0 -0 -0 -0 -0 -0 -0 -0 -0 -0 -0 -0 -0 -0 -0 -0 -0 -0 -3 -3 nan
nan nan nan nan nan nan nan nan nan nan -0 -0 -0 -0 -0 nan nan nan nan nan nan nan -6 -3 -3 -4 nan nan nan nan nan nan nan nan nan nan nan nan nan nan nan nan nan nan nan nan nan nan nan nan nan nan nan nan nan nan nan nan nan nan nan nan nan -0 -0 -0 -0 -0 -0 -0 -0 -0 -0 -0 -0 -0 -0 -0 -0 -0 -0 -0 -9 nan nan nan
nan nan nan nan nan nan nan nan nan nan nan -0 -0 -0 nan nan nan nan nan nan nan -16 -6 -4 -4 -7 -8 nan nan nan nan nan nan nan nan nan nan nan nan nan nan nan nan nan nan nan nan nan nan nan nan nan nan nan nan nan nan nan nan nan nan nan nan -0 -0 -0 -0 -0 -0 -0 -0 -0 -0 -0 -0 -0 -0 -0 -0 -0 -0 -0 nan nan nan nan
nan nan nan nan nan nan nan nan nan nan nan nan nan nan nan nan nan nan nan nan nan nan nan -15 -15 -11 -11 -6 nan nan nan nan nan nan nan nan nan nan nan nan nan nan nan -17 -17 nan nan nan nan nan nan nan nan nan nan nan nan nan nan nan nan nan nan nan nan nan nan -0 -0 -0 -0 -0 -0 -0 -0 -0 -0 -0 -0 -0 -0 -0 nan nan nan nan
nan nan nan nan nan nan nan nan nan nan nan nan nan nan nan nan nan nan nan nan nan nan nan nan nan -14 -12 -10 -8 -8 nan nan nan nan -13 nan nan nan nan nan nan nan nan nan nan nan nan nan nan nan nan nan nan nan nan nan nan nan nan nan nan nan nan nan nan nan nan nan nan nan -0 -0 -0 -0 -0 -0 -0 -0 -0 -0 -0 -0 -0 -19 -19 -18
nan nan nan nan nan nan nan nan nan nan nan nan nan nan nan nan nan nan nan nan nan nan nan nan nan nan nan nan nan nan nan nan nan nan -8 nan nan nan nan nan nan nan nan nan nan nan nan nan nan nan nan nan nan nan nan nan nan nan nan nan nan nan nan nan nan nan nan nan nan nan nan nan nan nan nan -0 -0 -0 -0 -0 -0 -0 -0 -1 -1 -8
nan nan nan nan nan nan nan nan nan nan nan nan nan nan nan nan nan nan nan nan nan nan nan nan nan nan nan nan nan nan nan nan nan nan -7 nan nan nan nan nan nan nan nan nan nan nan nan nan nan -1 nan nan nan nan nan nan nan nan nan nan nan nan nan nan nan nan nan nan nan nan nan nan nan nan nan nan -0 -0 -0 -0 -0 -0 -0 -0 -0 -0
nan nan nan nan nan nan nan nan nan nan nan nan nan nan nan nan nan nan nan nan nan nan nan nan nan nan nan nan nan nan nan nan nan nan -2 nan nan nan nan nan nan nan nan nan nan nan nan nan nan -1 -0 nan nan nan nan nan nan nan nan nan nan nan nan nan nan nan nan nan nan nan nan nan nan nan nan -0 -0 -0 -0 -0 -0 -0 -0 -0 -0 -0
nan nan nan nan nan nan nan nan nan nan nan nan nan nan nan nan nan nan nan nan nan nan nan nan nan nan nan nan nan nan nan nan nan nan -7 -18 -16 -16 nan -6 -6 -3 nan nan nan -4 nan nan nan nan nan nan nan nan nan nan nan nan nan nan nan nan nan nan nan nan nan nan nan nan nan nan nan nan nan -0 -0 -0 -0 -0 -0 -0 -0 -0 -0 -0
nan nan nan nan nan nan nan nan nan nan nan nan nan nan nan nan nan nan nan nan nan nan nan nan nan nan nan nan nan nan nan nan nan nan nan nan nan nan -10 nan nan -4 -6 -6 -6 nan nan nan nan nan nan nan nan nan nan nan nan nan nan nan nan nan nan nan nan nan nan nan nan nan nan nan nan nan nan nan nan nan nan nan nan nan -0 -0 -0 -0
nan nan nan nan nan nan nan nan nan nan nan nan nan nan nan nan nan nan nan nan nan nan nan nan nan nan nan nan nan nan nan nan nan nan nan nan nan nan nan -7 -7 -8 -9 -11 -11 -10 nan nan nan nan nan nan nan nan nan nan nan nan nan nan nan nan nan nan nan nan nan nan nan nan nan nan nan nan nan nan nan nan nan nan nan nan nan nan nan nan
nan nan nan nan nan nan nan nan nan nan nan nan nan nan nan nan nan nan nan nan nan nan nan nan nan nan nan -16 -6 -6 -15 nan nan nan nan nan nan nan nan nan nan -8 -9 nan nan nan nan nan nan nan nan nan nan nan nan nan nan nan -3 nan nan nan nan nan nan nan nan nan nan nan nan nan nan nan nan nan nan nan nan nan nan nan nan nan nan nan
nan nan nan nan nan nan nan nan nan nan nan nan nan nan nan nan nan nan nan nan nan nan nan nan nan nan nan nan nan nan nan nan nan nan nan nan nan nan nan nan nan nan nan nan nan nan nan nan nan nan nan nan nan nan nan nan nan -0 -0 nan nan nan nan -8 -8 nan nan nan nan nan nan nan nan nan nan nan nan nan nan nan nan nan nan nan nan nan
nan nan nan nan nan nan nan nan -14 -14 -14 nan nan nan nan nan nan nan nan nan nan nan nan nan nan nan nan nan nan nan nan nan nan nan nan nan nan nan nan nan nan nan nan nan nan nan nan nan nan nan nan nan nan nan nan nan nan -2 -1 nan nan nan -6 nan nan nan nan nan nan nan nan nan nan nan nan nan nan nan nan nan nan nan nan nan nan nan
nan nan nan nan nan nan nan -10 -16 -16 nan nan nan nan nan nan nan nan nan nan nan -10 nan nan nan nan nan nan nan nan nan nan nan nan nan nan nan nan nan nan nan nan nan nan nan nan nan nan nan nan nan nan nan nan nan nan nan nan nan -5 -5 -5 nan nan nan nan nan nan nan nan nan nan nan nan nan nan nan nan nan nan nan nan -4 nan nan nan
nan nan nan nan nan nan nan nan nan nan nan nan -12 -12 nan nan nan nan -10 -10 -10 -9 nan nan nan nan nan nan nan nan nan nan nan nan nan nan nan nan nan nan nan nan nan nan nan nan nan nan nan nan nan nan nan nan nan nan nan nan nan -7 -7 nan nan nan nan nan nan nan nan nan nan nan nan nan nan nan nan nan nan nan nan nan nan nan nan nan
nan nan -11 -6 -6 -10 nan nan nan nan nan -12 -15 -15 nan nan -10 -10 nan nan nan nan nan -18 -18 nan nan nan nan nan nan nan nan nan nan nan -16 -16 nan nan nan nan nan nan nan nan nan nan nan nan nan nan nan nan nan nan nan nan -3 -3 -3 -6 -10 -10 -10 -12 nan nan nan nan nan nan nan nan nan nan nan nan nan nan nan nan nan nan nan nan
nan nan -11 -12 -12 -16 -11 -13 -14 -14 nan nan -14 -14 nan nan nan nan nan nan nan nan nan -22 -22 nan nan nan nan nan nan nan nan nan nan nan nan nan nan nan nan nan nan nan nan nan nan nan nan nan nan nan nan nan nan nan nan nan nan -3 -3 -8 -10 nan nan nan nan nan nan nan nan nan nan nan nan nan nan nan nan nan nan nan nan nan nan nan
nan -17 -19 -20 -20 -19 nan nan nan nan nan nan nan nan nan nan nan nan nan nan nan nan nan -13 -13 nan nan nan nan nan nan nan nan nan nan nan nan nan nan nan nan nan nan nan nan nan nan nan nan nan nan nan nan nan nan nan nan nan nan nan nan nan -10 nan nan nan nan nan nan nan nan nan nan nan nan nan nan nan nan nan nan -25 -24 -21 -21 -22
-16 -16 nan nan nan nan nan nan nan nan nan nan nan nan nan nan nan nan nan nan nan -14 -4 nan nan nan nan nan nan nan nan nan nan nan nan nan nan nan nan nan nan nan nan nan nan nan nan nan nan nan nan nan nan nan nan nan nan nan nan nan nan nan nan nan nan nan nan nan nan nan nan nan nan nan nan nan nan nan nan -17 -17 -22 -23 -24 -24 nan
-17 nan nan nan nan nan nan nan nan nan nan nan nan nan nan nan -0 -0 nan nan nan nan nan nan nan nan nan nan nan nan nan nan nan nan nan nan nan nan nan nan nan nan nan nan nan nan nan nan nan nan nan nan nan nan nan nan nan nan nan nan nan nan nan nan nan nan nan nan nan nan nan nan nan nan nan nan nan nan -10 -13 -13 -21 -26 nan nan nan
nan nan nan nan nan nan nan nan nan nan nan nan nan nan nan nan nan nan nan nan nan nan nan nan nan nan nan nan nan nan nan nan nan nan nan nan nan nan nan nan nan nan nan nan nan nan nan nan nan nan -5 nan nan nan nan nan nan nan nan nan nan nan nan nan nan nan nan nan nan nan nan nan nan nan nan nan -9 -9 -8 -12 -12 -18 nan nan nan nan
nan nan nan nan nan nan nan nan nan nan nan nan nan nan nan nan nan nan nan nan nan nan nan nan nan nan nan nan nan nan nan nan nan nan nan nan nan nan nan nan nan nan nan nan nan nan nan nan nan nan -12 -0 -5 -5 nan nan nan nan nan nan nan nan nan nan nan nan nan nan nan nan nan nan -21 -21 -12 -10 -8 -8 -9 -14 -14 nan nan nan nan nan
Wind_Speed
2 2 3 5 4 4 3 4 4 3 3 3 3 4 4 6 6 6 8 7 6 5 4 3 3 3 3 6 8 9 11 11 11 11 11 11 11 10 10 10 10 10 11 11 11 11 12 12 12 12 12 12 12 12 12 12 13 13 13 13 13 13 13 14 14 14 14 14 14 15 15 15 15 15 14 15 15 15 15 16 16 16 17 17 17 17
2 2 2 4 4 3 3 4 4 4 4 4 4 5 5 5 5 4 5 5 4 4 3 3 3 2 3 4 6 9 10 11 11 11 11 11 10 10 11 11 11 11 11 11 11 12 12 12 12 12 12 12 12 12 12 12 12 12 12 13 13 13 13 13 13 14 14 14 14 15 15 15 15 15 14 15 15 15 16 16 16 17 17 17 17 17
2 2 2 3 3 3 2 4 4 5 5 5 6 6 6 6 5 4 3 3 3 3 2 2 2 2 2 3 6 8 10 10 11 11 10 10 11 11 11 11 11 11 11 12 12 12 12 12 12 12 12 12 12 12 12 12 12 12 12 12 13 13 13 13 13 14 14 14 14 15 15 15 15 15 15 15 16 16 16 17 17 17 17 18 18 18
2 2 3 2 2 2 2 3 4 5 5 5 6 6 5 5 4 3 2 2 2 1 1 2 2 2 2 3 5 7 9 10 10 10 10 10 11 11 11 11 11 11 12 12 12 12 11 11 11 11 11 11 11 11 11 12 12 12 12 12 13 13 13 13 14 14 14 14 14 15 15 15 15 15 15 16 16 16 17 17 17 17 18 18 18 18
2 2 3 2 2 2 2 2 3 4 4 4 4 3 3 3 2 2 1 1 1 1 2 2 2 2 3 3 4 6 9 10 10 10 10 10 11 11 11 12 12 12 12 11 11 11 11 11 11 11 11 11 11 11 11 12 12 12 12 13 13 13 13 14 14 14 14 14 14 14 15 15 15 16 16 16 16 17 17 17 17 18 18 18 18 19
2 2 2 2 2 2 2 2 2 3 3 2 2 1 1 1 1 1 1 1 1 2 2 2 2 3 3 3 5 6 8 9 9 9 10 10 11 11 12 12 12 12 12 12 11 11 11 11 11 11 11 11 11 11 12 12 12 12 13 13 13 13 13 13 14 14 14 14 14 14 15 15 15 15 16 16 16 17 17 17 17 18 18 18 19 19
2 1 2 1 1 1 1 1 2 2 2 2 1 1 1 0 0 1 1 1 1 2 2 2 2 2 3 3 4 5 6 6 7 8 9 10 11 11 12 12 12 12 12 12 11 11 11 11 11 11 11 11 11 11 12 12 12 12 13 13 13 13 13 13 13 13 13 14 14 14 14 15 15 15 16 16 16 17 17 17 17 18 18 18 19 19
2 1 1 1 1 1 1 1 2 2 2 2 2 2 1 1 1 1 1 1 1 1 2 2 2 2 1 1 2 2 2 3 4 5 6 8 9 10 11 12 12 12 12 12 11 11 11 11 10 10 10 11 11 11 12 12 12 13 13 13 13 13 13 13 13 13 13 13 14 14 14 15 15 15 15 16 16 16 16 17 17 17 18 18 18 19
2 1 1 1 1 1 1 2 2 2 3 3 3 3 2 2 1 1 1 1 1 1 1 1 2 2 1 1 1 1 1 2 2 3 5 5 5 7 9 10 11 11 12 11 11 11 10 10 10 10 10 11 11 12 12 12 13 13 13 13 13 13 13 13 13 13 13 13 14 14 14 14 15 15 15 15 16 16 16 16 17 17 17 18 18 19
1 1 1 1 1 2 2 2 2 2 2 2 2 2 2 2 2 1 1 2 1 1 0 0 1 1 2 2 2 1 1 3 5 6 7 7 8 8 9 9 9 10 11 11 11 10 10 10 10 11 11 12 12 12 13 13 13 13 13 13 13 13 13 13 13 13 13 13 13 14 14 14 14 15 15 15 15 16 16 16 17 17 17 18 19 19
0 1 1 1 1 1 2 2 2 1 1 1 1 1 1 2 2 2 2 2 2 2 1 1 0 0 1 2 2 2 1 2 4 6 7 8 9 10 10 9 9 9 10 10 10 10 10 11 11 12 12 13 13 13 13 13 13 13 13 13 13 13 13 13 13 13 13 13 13 14 14 14 14 14 15 15 15 16 16 16 17 17 18 18 19 19
1 1 1 2 1 1 1 1 0 1 1 1 1 0 1 1 1 2 2 2 2 1 2 2 1 1 1 1 1 1 1 2 2 3 4 5 5 6 6 6 6 7 7 7 8 9 10 11 12 12 12 13 13 13 13 13 13 13 14 14 14 14 13 13 13 13 13 13 13 14 14 14 14 15 15 15 16 16 17 17 17 18 18 18 19 19
1 1 1 1 1 1 1 0 1 1 1 1 1 2 2 1 0 1 2 1 1 1 1 1 2 2 1 1 1 1 1 2 2 2 2 2 2 2 2 2 2 3 3 4 4 6 8 10 11 11 12 12 12 13 13 13 13 14 14 14 14 14 14 14 14 14 14 14 14 14 14 15 15 15 16 16 17 17 17 18 18 18 19 19 19 20
1 1 1 1 1 1 0 1 1 1 1 2 2 2 1 1 1 2 1 1 0 1 0 1 1 2 2 2 1 1 1 1 1 1 1 2 1 1 1 1 2 2 2 3 3 4 6 7 7 8 10 11 11 12 12 13 14 14 14 14 14 14 14 14 14 14 14 14 14 15 15 15 16 16 17 17 17 18 18 18 18 19 19 19 20 20
2 1 1 1 1 1 0 1 1 1 1 1 1 1 1 2 2 2 2 0 0 1 0 1 1 2 2 2 2 1 1 1 1 1 1 2 2 1 1 2 2 3 2 3 3 4 6 5 4 5 6 7 8 9 11 12 13 14 14 14 14 14 14 14 14 14 14 15 15 15 16 16 16 17 17 18 18 18 19 19 19 19 19 19 20 20
2 2 2 1 1 1 1 1 1 1 1 0 0 1 2 1 1 1 2 1 0 1 1 2 2 2 2 2 2 1 1 1 1 2 2 2 2 1 1 1 3 3 3 3 3 4 4 4 4 4 5 7 10 12 13 13 14 14 14 14 14 14 14 14 14 14 15 15 15 16 16 17 17 17 18 18 18 19 19 19 19 19 19 20 20 20
1 1 2 1 1 1 1 0 0 1 0 0 0 1 1 1 1 1 2 1 1 1 1 1 1 2 2 3 2 2 1 1 1 2 2 3 2 2 1 1 3 4 4 4 4 4 3 4 4 4 4 8 11 13 14 14 14 14 14 14 14 14 14 14 14 15 15 15 16 16 16 17 17 18 18 18 18 19 19 19 19 19 20 20 20 20
1 1 2 1 1 1 0 0 0 0 0 1 1 1 1 1 1 1 2 2 1 1 0 0 1 1 1 2 3 2 1 1 1 3 3 4 3 2 1 1 2 3 4 4 4 3 3 3 4 4 6 10 12 13 14 14 14 14 14 14 14 14 14 14 15 15 15 16 16 16 17 17 17 18 18 18 19 19 19 19 19 20 20 20 20 20
1 1 1 1 1 0 0 0 0 0 1 1 1 1 1 1 1 1 1 2 2 2 1 1 1 1 1 2 3 3 1 1 2 3 4 4 4 3 1 1 2 3 4 4 4 4 4 4 5 7 10 12 13 14 14 14 14 14 14 15 15 15 15 15 15 15 16 16 16 17 17 17 17 18 18 18 18 19 19 19 19 20 20 20 20 20
0 0 1 1 1 0 1 1 1 1 1 1 2 2 2 1 1 1 1 1 1 2 2 1 1 2 2 2 3 2 2 3 3 3 4 5 4 3 2 2 2 3 4 4 3 3 4 4 5 7 10 11 12 13 14 14 15 15 15 15 15 15 15 15 15 15 16 16 16 17 17 17 17 17 18 18 18 18 19 19 19 19 19 20 20 20
0 1 1 1 1 1 0 1 1 1 1 2 2 2 2 1 1 0 0 1 1 1 1 1 1 2 2 2 2 2 2 3 4 4 3 4 4 3 2 1 2 3 4 4 3 3 3 3 4 4 7 10 12 13 14 15 15 15 15 15 15 15 15 15 16 16 16 16 16 16 17 17 17 17 18 18 18 18 19 19 19 19 19 19 20 20
1 1 1 1 2 1 1 1 2 2 2 2 2 2 1 1 1 1 1 1 1 1 1 1 2 2 2 3 3 2 2 2 2 3 3 4 4 3 2 1 2 2 3 3 3 2 2 2 3 4 6 10 12 14 15 15 16 16 15 15 15 15 15 16 16 16 16 16 16 16 16 17 17 18 18 18 18 19 19 19 19 19 19 19 20 20
1 1 1 2 2 2 2 2 2 2 2 2 3 3 3 3 2 2 2 2 2 2 2 2 2 2 2 3 3 2 2 1 2 2 2 3 4 3 2 1 1 2 3 3 3 3 2 2 3 4 7 11 13 14 15 16 16 16 15 15 15 15 16 16 16 16 16 16 16 16 17 17 18 18 18 18 18 18 19 19 19 19 19 19 19 20
2 2 2 2 2 2 2 2 2 2 2 2 3 3 4 3 3 3 3 3 2 2 1 2 2 3 3 3 3 3 2 2 1 1 1 3 3 3 2 1 2 3 4 3 3 3 3 3 3 4 5 9 12 14 15 15 15 15 15 15 15 15 15 15 15 15 16 16 17 17 18 18 18 18 18 18 18 18 18 18 18 18 19 19 19 19
2 2 2 2 3 3 2 2 2 2 2 2 2 2 3 3 3 3 2 2 1 1 2 3 4 4 3 3 2 2 2 2 1 1 2 2 3 3 2 1 2 3 4 4 3 3 4 4 4 4 4 7 10 13 14 15 15 15 15 15 15 15 15 15 15 16 16 17 18 18 18 18 18 18 18 18 18 18 18 18 18 18 18 19 19 19
1 0 1 2 3 4 5 6 7 6 5 3 2 2 2 2 2 1 1 2 2 2 2 3 4 4 3 2 2 2 3 2 1 2 2 2 2 3 2 2 2 3 5 4 4 4 4 5 4 4 3 5 7 10 12 13 14 14 14 14 14 14 15 15 16 17 17 18 18 18 18 18 18 18 18 18 18 18 18 18 18 18 18 19 19 18
5 6 7 7 8 8 8 8 9 9 9 8 6 4 2 1 1 1 2 2 2 2 2 3 4 4 3 2 2 2 2 2 1 1 2 1 2 3 3 2 2 3 4 5 4 4 5 5 5 4 3 4 5 7 10 11 12 12 12 13 14 15 16 17 17 18 18 18 18 18 18 18 18 18 18 18 18 18 18 18 18 18 18 17 16 15
9 9 9 9 9 9 9 9 9 10 10 10 10 8 5 1 1 2 3 2 1 1 2 3 4 4 3 3 3 2 2 2 2 2 1 1 2 3 3 2 2 2 4 4 5 5 6 5 5 4 4 3 3 4 6 8 9 10 11 13 14 16 17 17 18 18 18 18 18 18 18 18 18 18 18 18 18 18 18 18 18 18 17 14 10 8
9 9 9 9 10 10 9 9 9 9 10 10 10 9 6 2 2 2 3 2 2 2 3 4 4 4 3 3 3 3 2 2 2 1 1 0 1 2 2 2 2 2 3 4 5 4 4 3 3 3 2 2 1 1 3 4 6 8 10 12 14 15 16 17 17 18 18 18 18 18 18 18 18 18 18 18 18 18 19 19 18 16 12 10 8 6
6 6 6 7 7 7 7 6 6 8 9 10 10 9 6 3 2 2 2 2 2 3 4 4 4 3 3 3 3 3 2 2 2 1 2 1 1 2 2 2 2 2 2 3 4 4 3 2 2 1 1 1 1 1 2 3 4 5 6 9 10 12 14 15 16 17 17 18 18 18 18 18 18 18 18 18 19 19 19 19 17 13 8 7 6 6
3 3 3 4 4 4 4 4 4 5 6 7 8 7 5 3 2 2 2 3 3 3 3 3 3 3 3 3 3 3 2 2 2 1 2 1 1 2 2 2 2 2 1 2 3 4 5 3 2 1 1 2 2 3 3 3 4 4 4 5 6 8 11 13 15 15 16 16 17 17 18 18 18 18 18 19 19 19 19 19 17 12 7 6 6 6
2 3 3 3 3 3 3 3 3 3 3 4 4 4 4 3 2 3 3 3 3 3 3 3 3 3 3 3 3 3 2 2 2 2 0 1 1 2 2 2 3 2 2 2 2 3 4 4 3 3 3 3 4 4 4 4 4 3 4 4 4 5 9 11 12 13 13 14 16 16 17 18 18 18 18 19 19 19 19 19 17 13 8 6 6 6
3 3 3 3 3 3 3 3 2 3 3 3 3 3 4 3 3 3 3 3 3 3 3 3 3 3 3 4 4 4 3 3 3 3 3 2 2 2 2 2 3 3 3 2 2 3 4 5 5 5 5 5 4 4 4 4 4 4 3 4 4 5 7 8 8 9 10 11 12 13 15 16 17 17 18 18 18 18 18 18 17 15 11 8 7 7
3 3 3 3 3 3 3 3 3 3 3 3 4 4 3 3 3 3 3 3 3 3 3 3 3 3 3 4 4 4 4 3 3 4 4 2 2 2 3 3 3 4 4 3 3 3 4 5 5 6 6 5 5 4 4 4 4 4 3 3 4 4 5 5 5 6 8 8 8 8 10 11 12 14 15 16 16 17 17 18 18 17 16 11 9 8
3 3 3 3 3 3 4 3 4 4 4 3 3 3 3 2 2 2 2 2 2 2 2 3 3 3 3 3 4 4 4 3 3 3 4 3 2 2 3 3 3 3 4 4 4 4 4 5 6 7 7 6 6 5 4 4 4 3 3 4 4 4 4 4 5 5 7 7 7 6 6 6 7 9 10 12 14 16 17 18 19 19 19 17 14 11
3 3 3 3 3 3 4 4 4 4 4 3 2 2 2 2 1 1 1 1 1 1 1 1 2 2 3 3 4 4 5 3 3 4 5 3 3 3 3 3 3 4 4 4 4 4 4 5 7 7 8 7 6 5 4 3 3 3 4 4 4 5 5 5 5 5 5 6 6 6 6 5 6 7 8 11 14 16 18 18 19 19 19 19 18 16
2 3 3 3 2 3 3 3 3 3 3 2 2 2 2 1 1 1 1 0 0 1 1 2 2 3 3 3 3 4 5 4 4 5 5 4 3 3 4 4 4 4 4 4 5 5 5 6 7 7 7 7 6 5 5 4 4 4 5 5 5 5 5 5 5 5 5 6 6 6 6 6 6 7 8 11 13 15 16 17 17 18 19 19 19 18
2 2 3 2 2 2 2 2 2 2 2 2 2 2 2 1 1 1 1 1 1 1 2 3 3 4 6 6 6 5 5 6 6 6 6 5 4 4 5 5 5 5 5 5 5 5 6 6 7 7 6 6 6 7 7 6 6 6 6 5 6 6 6 5 5 5 5 6 7 7 8 7 7 6 7 8 8 8 9 10 11 13 15 15 16 18
2 2 2 2 2 2 2 2 2 3 3 2 2 2 2 2 2 2 2 2 2 2 3 3 4 4 5 6 7 7 7 7 6 6 6 5 5 5 5 6 6 6 5 5 5 5 6 6 6 7 6 7 7 7 7 6 7 7 8 7 6 6 6 5 5 5 4 5 6 8 8 7 6 6 6 6 5 5 6 6 7 8 9 8 10 13
2 2 2 3 3 2 2 3 3 3 3 3 3 3 3 3 3 3 3 3 3 4 4 4 4 4 4 5 6 7 7 6 6 6 5 4 4 5 5 6 6 6 5 5 5 5 6 6 7 7 7 7 7 7 7 7 7 8 9 8 7 6 5 5 5 5 5 5 6 6 6 6 6 6 6 6 5 5 5 5 6 6 6 6 6 7
2 2 3 3 3 3 2 3 3 3 3 3 3 3 3 3 3 3 3 3 3 3 3 3 4 4 4 4 5 5 6 6 6 6 5 5 6 6 5 6 6 6 6 6 6 6 6 7 8 8 8 8 8 9 9 9 9 10 10 9 8 8 8 8 7 6 5 5 5 5 6 7 7 7 7 7 6 6 6 6 6 7 7 6 6 6
3 3 3 3 2 2 2 3 3 3 3 2 2 2 2 2 2 3 3 2 2 3 3 3 3 4 5 5 5 5 5 5 6 6 6 7 7 7 6 6 6 5 6 6 6 7 7 7 8 8 8 8 8 9 9 9 9 10 9 9 10 10 10 9 7 5 5 5 5 5 7 7 7 7 7 7 7 6 7 7 8 9 9 7 6 6
2 2 2 2 2 3 3 3 3 3 2 2 2 3 2 2 2 3 3 3 3 3 3 3 3 4 5 5 5 4 4 4 5 6 7 7 7 7 7 7 6 6 5 6 6 7 7 8 8 8 8 8 8 9 10 10 9 9 9 9 9 8 7 6 5 4 5 6 6 6 6 7 7 7 7 7 7 7 7 8 10 11 10 9 7 7
2 2 2 2 3 3 3 2 2 2 2 3 3 3 3 3 3 3 3 3 4 4 3 3 3 4 5 5 5 5 4 3 4 5 6 7 7 7 7 7 7 6 6 5 6 7 7 8 8 8 7 8 8 9 10 10 9 9 9 9 9 9 8 7 7 7 7 7 7 6 6 6 6 7 7 7 7 7 7 7 8 9 10 9 9 8
2 2 2 2 2 2 2 2 2 2 2 3 3 3 3 3 3 3 3 3 3 4 3 3 3 3 4 4 4 4 4 3 3 3 4 6 7 8 7 6 6 6 6 6 6 6 7 7 8 7 7 7 8 9 10 10 10 10 10 10 9 9 9 9 9 9 8 8 8 7 6 6 6 7 7 8 8 8 7 8 8 9 9 8 8 8
2 2 2 2 2 2 3 3 3 3 3 3 3 3 3 3 3 3 3 3 3 3 3 3 3 3 4 5 5 5 5 4 4 4 3 3 4 5 5 6 6 6 6 6 7 7 7 8 8 8 8 8 9 9 10 10 10 10 10 10 9 9 9 9 9 9 9 9 9 8 7 6 6 7 8 9 9 9 8 8 8 9 9 8 8 8
2 2 2 2 2 2 2 3 3 3 3 3 3 3 3 3 3 3 3 3 3 3 3 3 3 4 5 5 5 5 6 6 6 5 4 4 3 4 4 5 6 6 6 7 7 8 8 9 8 8 8 9 9 10 10 9 9 9 10 9 9 9 9 9 8 8 8 8 8 8 6 6 7 8 9 9 9 9 8 8 8 8 8 8 8 7
2 2 2 2 2 2 3 3 3 3 4 4 4 3 3 3 4 4 3 3 3 3 4 3 4 4 5 5 5 5 6 7 6 6 5 4 4 4 4 4 5 5 6 7 8 9 9 10 10 10 9 9 10 10 10 9 9 9 9 9 9 9 9 9 9 8 8 8 8 7 6 6 8 9 10 10 9 9 8 8 7 7 7 7 7 7
2 2 2 2 2 3 3 3 3 4 4 4 4 4 3 4 5 5 4 3 3 3 3 4 4 5 5 5 5 6 6 7 6 6 5 4 4 4 4 4 4 4 5 6 7 7 8 9 11 11 11 11 11 11 11 10 9 9 9 9 9 9 9 9 9 8 8 8 8 7 6 7 8 8 9 9 10 10 9 8 8 7 7 7 7 7
2 2 2 2 3 3 3 4 4 4 4 5 5 4 3 3 3 3 3 3 3 3 3 4 5 5 6 6 6 6 6 6 6 6 5 4 4 4 4 4 4 4 5 5 5 5 5 6 8 10 12 13 12 11 11 10 10 9 9 8 8 8 9 9 9 8 8 8 8 7 7 7 7 7 7 8 9 10 10 9 8 8 7 7 7 8
2 2 2 2 3 3 4 4 4 4 5 5 5 4 4 3 3 3 3 3 3 3 4 4 5 5 6 6 7 7 7 6 6 6 6 4 4 4 4 4 4 4 5 5 5 4 4 4 5 6 8 12 13 13 10 9 8 8 8 8 7 7 7 8 8 8 8 8 8 7 7 7 7 7 6 7 9 10 10 10 9 8 7 7 7 8
Wind_Direction
113 123 132 141 145 153 168 167 165 165 176 187 199 211 221 222 220 217 219 220 219 217 217 216 217 228 249 268 277 282 287 290 293 296 298 299 300 300 299 297 295 292 289 287 285 284 282 282 281 281 281 282 282 283 284 285 285 286 286 286 286 286 286 287 287 287 287 288 288 288 288 289 290 290 291 290 290 289 288 287 286 285 283 282 281 280
99 110 123 140 146 152 166 172 175 179 186 194 201 208 215 220 219 217 215 211 206 200 201 204 209 217 230 257 275 283 287 290 293 296 299 300 300 300 298 296 294 291 288 286 284 283 282 281 281 281 281 282 282 283 284 285 285 285 285 286 286 286 286 286 286 287 287 287 287 287 288 288 288 288 288 287 286 284 283 282 282 281 280 279 279 279
116 123 134 145 152 158 164 178 187 193 196 200 204 208 211 215 216 216 212 205 199 195 194 198 207 218 228 248 272 282 286 290 294 297 299 300 300 300 298 295 292 290 287 285 283 282 281 281 281 282 282 282 283 284 284 285 285 286 286 286 286 285 285 285 285 285 285 285 285 286 286 286 285 285 284 283 282 281 280 279 279 279 279 279 279 279
129 137 146 150 161 171 173 181 190 198 205 207 208 208 207 209 212 212 205 198 198 204 213 209 214 224 233 246 265 276 283 289 293 297 299 300 300 300 299 296 294 292 289 288 286 285 284 284 284 284 285 286 286 286 287 287 287 286 286 285 285 284 283 282 282 282 282 282 282 282 282 282 282 281 281 280 279 279 278 279 279 279 279 279 279 279
135 141 147 150 163 175 180 181 189 198 206 209 209 207 204 205 205 204 198 193 203 222 237 236 232 231 235 240 257 270 280 288 294 298 301 302 303 303 302 300 298 296 294 293 291 290 289 289 289 290 290 290 290 290 289 288 288 286 285 284 283 282 280 280 279 279 278 279 279 279 279 280 280 280 279 279 279 279 279 279 279 279 279 279 279 278
135 136 138 146 155 165 172 183 193 199 204 213 217 217 210 207 198 191 194 208 218 229 240 243 239 236 234 236 252 267 279 291 299 304 306 306 306 305 304 302 301 299 297 296 295 294 293 293 292 292 291 291 291 290 290 289 289 288 287 285 284 282 280 280 279 278 278 278 278 278 279 279 279 279 279 279 279 279 279 279 279 280 279 279 279 279
130 126 123 129 135 143 157 183 194 197 196 211 232 253 274 274 235 212 215 217 223 232 243 248 246 243 241 246 260 274 288 302 311 315 313 311 308 306 304 302 300 298 297 295 294 293 292 292 292 291 290 290 291 292 292 293 293 294 293 292 290 289 287 285 283 282 281 280 280 279 279 279 279 279 279 279 279 279 279 280 280 280 280 280 280 280
123 121 118 124 127 133 153 192 197 194 186 194 207 227 249 267 272 265 259 254 242 237 241 252 258 261 266 283 298 304 307 314 316 315 313 308 305 303 301 299 298 297 296 294 294 293 292 291 291 292 292 294 296 298 300 300 301 301 301 299 298 296 293 291 289 286 284 283 281 280 280 279 278 278 278 278 278 279 279 280 280 281 281 281 282 282
111 125 135 138 145 154 182 211 212 203 189 186 189 197 207 227 251 277 300 299 282 246 227 246 264 283 312 345 356 342 303 296 297 299 301 299 297 296 296 296 296 296 295 295 295 295 295 296 297 298 300 302 304 305 306 306 306 305 304 302 301 299 296 293 291 288 286 284 282 281 280 279 279 278 278 279 279 279 280 280 281 281 282 282 282 282
87 131 170 179 179 180 186 209 217 214 195 182 175 174 177 193 211 245 277 285 290 297 340 242 273 297 324 341 340 324 300 300 302 302 301 298 297 296 296 296 297 297 298 300 302 304 305 306 307 307 307 307 308 308 307 307 306 304 303 301 300 298 296 293 291 289 287 284 283 281 280 280 279 279 279 279 279 279 280 280 280 281 281 281 281 282
103 214 214 216 214 208 198 206 208 202 169 160 157 157 162 178 190 207 238 265 285 312 354 14 13 334 331 331 326 321 317 309 304 303 302 299 298 297 297 298 299 301 304 309 314 316 317 314 313 311 309 308 307 307 306 305 304 303 301 300 298 297 295 293 290 288 286 284 283 281 280 280 279 279 279 279 279 279 279 279 279 280 280 280 280 281
211 224 223 220 219 220 219 218 177 94 98 122 147 240 278 254 187 183 203 232 261 299 336 345 341 313 260 286 299 306 309 294 290 291 295 295 295 295 296 299 303 307 312 318 322 322 320 317 313 310 308 307 306 305 304 303 302 301 300 298 297 295 293 291 289 287 285 283 282 281 280 280 279 279 279 279 279 279 279 279 279 279 279 280 280 280
224 221 213 215 214 211 203 137 68 68 94 138 172 205 235 246 153 136 163 199 229 272 323 332 323 302 262 238 239 262 276 271 270 272 278 283 285 288 294 300 303 308 315 321 320 317 315 313 310 308 306 304 303 302 301 300 299 298 297 295 293 291 290 288 286 284 283 282 281 281 280 280 280 279 279 279 279 279 279 279 278 278 278 279 279 280
228 221 209 210 217 219 185 139 138 153 174 180 184 191 197 141 93 94 108 144 240 263 257 287 300 297 284 262 242 227 232 257 268 272 272 270 263 259 263 287 291 294 303 308 303 300 301 304 304 302 300 299 298 298 297 296 295 294 292 291 289 288 286 285 284 283 282 281 281 281 280 280 280 280 280 279 279 279 278 278 278 277 277 277 277 278
215 204 195 204 220 230 204 154 165 184 204 202 179 125 85 73 77 92 107 132 264 292 347 350 321 305 293 275 259 235 217 254 270 275 276 271 255 234 218 282 292 293 296 296 291 290 293 294 290 286 287 288 288 287 288 290 290 289 289 288 287 286 285 284 283 283 282 282 282 282 282 281 281 281 281 280 280 279 279 278 278 277 277 277 277 277
198 183 180 190 212 234 223 159 164 190 217 219 86 88 96 96 100 110 117 138 273 1 30 14 349 325 304 292 279 259 224 254 261 267 277 279 267 241 197 284 295 293 291 288 284 284 287 283 276 272 274 278 281 283 285 287 287 287 287 287 287 287 286 286 286 285 285 285 285 284 284 284 284 283 283 282 282 282 281 280 280 279 278 278 277 277
179 165 163 170 204 246 254 163 164 184 186 83 75 97 118 133 133 128 123 125 94 51 49 47 351 313 303 305 298 283 230 245 266 276 287 287 279 262 207 266 284 287 287 284 281 280 281 278 275 272 270 274 278 282 285 286 287 288 289 289 289 289 289 289 289 289 289 289 289 288 288 288 287 287 286 286 285 285 284 283 282 281 280 279 278 278
169 154 144 153 192 236 259 222 191 196 145 123 107 90 84 103 116 121 122 120 112 101 100 131 219 253 279 293 291 281 250 252 285 295 300 294 287 274 240 252 270 278 283 282 279 276 272 270 266 265 267 275 279 283 286 288 289 290 290 291 291 292 292 293 293 293 293 293 293 293 292 292 291 290 290 289 288 287 286 285 283 282 281 280 279 278
166 155 144 162 186 216 313 281 215 192 166 157 138 115 82 65 79 98 115 127 135 146 162 190 226 240 248 264 271 273 272 308 316 312 305 297 292 285 271 266 273 277 279 279 276 272 266 263 262 264 268 275 280 284 288 290 291 291 292 292 293 294 295 295 296 296 296 296 296 295 294 294 293 292 291 289 288 287 285 284 283 282 281 280 279 279
147 186 179 163 141 87 357 306 258 214 190 162 133 113 101 87 76 87 123 145 156 159 158 179 226 246 247 258 269 285 318 340 334 318 301 294 292 289 282 272 274 277 279 276 272 265 259 256 259 265 270 275 281 286 289 291 292 292 293 294 295 295 296 297 298 298 298 297 296 295 294 294 293 292 290 290 288 287 286 285 284 283 282 281 281 280
134 236 218 163 129 107 351 264 245 222 189 138 110 98 101 95 86 90 192 164 153 148 140 197 235 244 250 270 288 307 333 341 329 312 297 292 291 288 282 265 265 272 276 274 267 258 252 252 252 256 264 277 283 287 291 292 293 294 294 294 295 296 297 298 298 298 298 297 296 296 295 295 295 295 294 293 292 291 290 288 287 286 285 284 283 282
149 221 225 180 152 144 179 217 223 211 175 132 117 116 142 140 158 208 216 183 171 188 213 232 243 255 273 285 293 304 329 326 306 293 293 291 289 286 274 251 255 267 273 273 268 260 251 253 253 259 267 280 286 290 292 293 293 293 294 294 295 296 298 298 299 298 297 297 298 298 299 299 299 298 297 296 295 294 292 291 290 288 287 286 284 283
142 179 204 191 183 178 183 200 208 203 180 156 154 163 173 169 176 188 193 184 186 200 219 237 256 274 289 292 293 295 297 275 260 261 275 281 285 286 274 254 266 276 278 281 283 284 279 271 266 267 273 283 287 290 292 292 292 293 293 295 296 297 298 298 298 298 299 300 301 302 302 301 301 300 298 297 295 294 292 291 290 289 287 286 285 284
141 166 188 194 194 191 186 192 197 197 188 179 177 178 178 175 176 177 178 176 180 194 232 275 291 296 296 296 296 293 284 260 231 213 238 266 276 281 283 295 296 293 289 289 291 294 293 285 276 270 272 281 284 287 289 290 291 292 294 295 296 297 298 299 300 301 302 303 304 304 303 302 301 299 298 296 295 294 292 291 290 289 288 287 286 285
153 171 196 204 207 210 213 226 232 225 200 190 184 183 185 183 178 171 169 177 203 254 286 294 293 291 290 295 294 289 279 264 217 186 209 258 273 282 290 306 306 299 295 295 296 296 294 289 283 274 268 273 279 283 286 289 291 293 294 296 297 299 300 302 303 304 305 305 304 304 302 301 300 299 298 297 296 295 294 293 293 292 291 290 289 287
106 324 296 299 299 300 301 301 301 297 278 255 222 198 193 189 189 200 226 242 254 266 276 279 281 282 286 290 288 282 279 281 230 181 191 252 282 292 299 305 300 295 295 297 297 296 293 289 285 278 269 268 275 280 284 288 291 294 296 298 300 302 304 304 305 305 305 304 303 302 301 301 300 300 299 299 298 297 297 296 295 294 294 293 291 289
2 352 344 339 334 329 324 320 315 308 301 293 282 267 240 200 200 238 250 247 245 249 258 269 277 282 286 284 277 271 273 279 255 206 185 247 284 292 295 298 295 294 296 297 297 295 292 290 287 282 275 266 268 275 283 289 294 298 301 303 305 306 305 305 304 304 303 302 302 301 301 301 301 300 300 300 299 299 298 298 298 297 296 296 293 291
1 355 350 344 338 332 327 323 318 312 307 301 296 291 287 271 247 255 258 254 245 243 253 265 273 279 283 281 276 271 265 264 253 231 182 224 274 280 285 294 299 302 304 302 299 294 289 283 279 275 270 265 266 275 285 296 303 307 308 307 306 305 304 303 302 301 301 301 301 301 301 301 301 301 300 300 300 300 300 300 300 299 299 297 296 293
359 354 347 340 334 330 327 325 321 314 306 301 297 294 292 281 256 254 258 252 245 247 254 260 266 271 278 283 285 280 271 259 252 235 119 112 270 273 283 308 321 323 322 311 304 297 284 269 259 256 259 269 280 296 299 308 310 310 307 304 302 301 300 300 300 300 300 300 301 301 301 301 301 301 301 301 302 302 301 302 301 301 299 297 294 290
355 351 344 336 331 327 325 321 314 307 302 298 295 292 291 282 255 242 242 233 232 241 253 259 263 267 275 284 287 284 274 262 256 228 96 80 280 279 295 318 321 321 331 320 313 306 297 273 248 234 253 295 306 304 296 302 300 298 296 296 296 295 296 297 298 299 299 300 300 301 301 301 301 302 302 302 302 302 302 302 301 300 297 293 289 286
336 335 327 323 322 322 320 311 303 299 298 298 296 294 291 278 245 226 224 218 222 233 247 256 260 263 268 277 282 281 274 265 252 214 107 95 275 275 294 304 301 295 303 320 315 311 307 299 280 248 287 308 305 299 295 292 289 286 282 284 286 288 291 294 296 298 299 300 300 301 301 301 301 302 301 301 301 301 301 301 301 300 295 291 287 283
314 314 308 307 310 312 310 304 299 296 295 295 292 287 278 259 233 211 205 205 211 222 237 248 254 258 257 260 264 268 271 267 253 238 133 284 277 274 280 290 292 293 291 301 300 299 301 302 304 306 309 305 302 298 294 290 286 281 280 280 280 284 289 293 296 297 298 299 300 300 300 300 300 300 300 300 299 299 299 299 299 298 294 289 284 281
309 310 308 310 310 308 303 299 296 293 290 286 281 276 271 259 240 220 204 202 204 211 223 238 248 253 255 255 258 261 266 267 275 285 301 297 291 288 291 296 300 303 306 298 285 277 279 290 299 305 305 302 298 295 292 290 286 281 278 281 281 284 289 292 294 295 295 296 297 298 298 298 298 298 297 297 297 297 297 297 297 295 293 288 284 282
314 313 313 315 313 310 306 304 301 297 293 288 283 278 272 263 251 236 222 216 210 209 213 224 235 245 253 258 260 263 266 268 284 299 312 309 300 297 301 301 302 303 305 298 289 281 276 282 291 298 301 300 296 292 291 290 288 283 276 274 277 282 286 289 290 290 290 292 293 293 294 294 293 293 294 294 294 294 295 295 295 294 293 291 289 288
317 315 313 314 314 313 312 311 307 303 298 294 290 287 285 278 268 257 248 242 231 222 220 220 224 231 241 253 262 267 270 272 290 309 315 312 305 300 298 295 297 300 299 294 291 289 284 285 288 292 296 298 297 294 289 286 285 284 277 272 272 275 279 281 283 286 287 288 287 286 285 285 285 286 288 289 290 291 292 293 294 294 294 293 292 290
319 314 309 308 308 309 309 307 305 303 301 298 297 300 306 307 304 294 280 280 282 278 272 252 240 233 231 242 256 266 273 278 290 299 301 299 297 294 290 288 290 292 291 289 287 287 287 288 288 289 290 293 295 297 295 291 289 288 286 282 278 277 276 274 274 277 281 283 283 282 281 281 279 279 281 286 288 290 291 293 294 294 293 292 290 288
313 305 299 297 298 300 301 300 300 300 300 298 297 295 290 282 273 262 241 227 271 302 301 292 284 278 276 267 265 269 278 284 287 287 286 283 280 277 276 279 280 279 278 280 283 285 286 288 288 288 286 286 289 295 300 303 301 296 292 289 286 283 280 274 269 267 270 274 276 278 280 280 280 280 281 285 288 290 292 292 292 291 290 289 288 287
301 293 289 286 287 289 289 286 285 285 285 280 271 261 252 245 246 254 259 270 288 300 301 299 296 294 294 291 286 281 281 282 281 278 275 271 266 265 267 272 272 269 265 268 273 278 281 284 287 288 287 284 284 287 295 300 301 299 295 292 289 285 282 276 269 262 262 269 274 278 280 281 282 283 284 286 287 288 288 286 285 285 286 286 285 285
282 278 278 276 273 271 271 268 265 263 266 274 282 288 293 300 304 308 310 307 301 295 290 289 287 285 284 281 279 278 277 274 270 266 263 259 257 257 262 266 268 267 264 262 263 266 270 274 278 282 286 288 289 289 290 292 293 295 297 295 291 284 279 278 274 271 268 272 277 281 283 282 282 281 280 280 279 278 278 278 278 278 280 282 283 283
260 262 265 264 259 256 263 273 273 273 278 298 311 318 319 319 317 315 309 302 294 288 281 278 276 274 271 270 271 273 274 271 267 262 256 251 248 249 254 260 265 267 267 262 259 259 261 266 270 274 277 282 287 289 290 288 288 291 296 296 294 290 287 287 285 280 274 271 273 276 279 279 278 276 275 274 273 272 272 274 276 277 277 277 279 281
251 254 256 255 256 258 262 277 288 297 306 315 318 318 315 312 307 300 295 292 290 289 289 286 284 281 276 273 272 272 273 271 267 261 254 247 244 244 249 255 260 264 267 265 262 259 259 264 268 271 273 276 280 282 283 283 285 287 290 289 289 290 292 289 286 282 276 270 267 269 274 278 279 279 278 277 274 271 269 271 273 275 275 270 269 271
252 253 251 253 263 271 275 281 292 301 310 310 308 305 305 302 298 296 296 295 293 291 291 291 290 288 285 280 273 267 264 262 259 256 252 246 242 242 245 250 254 258 263 265 264 262 260 262 265 268 271 274 277 279 280 280 281 281 281 282 285 289 289 284 280 278 278 276 273 272 275 278 280 281 281 279 277 274 271 269 269 270 271 268 264 262
252 258 265 276 281 281 280 288 298 309 319 319 312 307 305 303 302 301 300 297 294 292 291 286 284 285 286 286 283 275 264 255 252 251 249 245 241 240 243 246 249 252 255 261 264 264 262 261 261 264 266 269 271 274 278 280 280 279 276 278 282 287 288 286 285 283 281 281 280 279 278 278 278 279 278 278 277 276 273 271 269 268 267 266 263 259
255 268 276 281 279 278 283 293 302 309 311 304 300 297 296 293 291 291 290 287 286 286 284 282 281 281 282 284 286 286 279 265 253 248 247 245 241 238 241 242 244 245 245 251 260 265 268 264 262 262 263 265 266 269 272 276 278 278 276 276 276 276 277 285 291 292 288 284 281 279 276 276 277 279 279 277 276 275 273 270 268 265 264 262 261 260
251 263 268 271 275 279 286 291 296 297 295 290 287 286 285 281 279 278 275 277 279 279 278 280 282 283 282 283 286 289 289 283 273 264 257 254 253 252 248 245 244 244 243 245 251 257 264 267 268 268 267 265 264 266 269 273 276 278 278 277 276 274 273 279 284 287 286 285 282 279 275 275 278 280 280 278 275 273 270 268 267 266 263 260 258 257
250 256 260 265 273 281 287 292 295 295 291 286 283 281 279 271 268 267 268 270 274 276 275 274 276 280 283 287 291 294 296 295 292 287 278 265 258 253 249 247 247 247 247 248 250 252 255 261 266 271 273 270 267 265 265 269 274 277 279 279 279 278 277 278 278 279 280 281 281 279 277 276 277 277 277 277 275 273 268 264 263 263 262 260 257 256
256 261 264 271 279 287 293 296 295 291 286 281 278 275 273 268 266 265 266 266 269 273 276 274 273 276 281 288 292 295 295 295 293 291 285 276 265 257 252 250 248 248 250 252 253 253 254 255 259 263 268 271 271 269 267 267 269 272 276 279 279 278 277 277 276 276 276 276 276 277 278 278 276 275 274 275 275 274 271 267 263 261 260 260 260 260
265 271 277 285 292 296 296 294 290 285 281 279 276 272 268 267 268 270 270 268 271 277 283 283 282 281 282 283 284 285 287 288 289 289 288 283 276 267 259 256 253 252 252 254 256 256 256 254 253 253 256 261 266 269 271 269 268 269 273 275 277 276 276 276 276 275 273 272 270 270 271 273 273 274 276 277 276 276 274 271 268 264 263 265 267 268
264 269 277 284 288 289 286 284 280 279 278 278 277 274 269 270 275 279 279 278 277 279 280 280 280 280 280 279 279 279 280 282 283 285 286 284 282 278 272 267 265 263 262 260 259 258 257 254 250 246 244 248 255 262 268 268 268 268 269 270 271 272 273 274 275 275 273 272 269 266 263 264 266 269 273 275 276 276 277 275 273 271 270 271 271 271
261 261 267 274 278 279 278 279 278 278 278 279 279 279 276 273 271 271 269 269 268 267 267 269 272 275 277 278 278 278 278 279 280 281 281 282 282 282 280 278 277 277 276 272 268 264 263 258 250 242 237 237 242 250 260 264 267 267 267 266 266 268 270 273 275 275 274 274 272 269 265 265 266 266 268 272 275 278 280 279 278 277 275 274 271 269
276 271 270 271 274 276 276 277 278 277 278 280 281 282 282 279 273 268 261 261 262 263 264 265 266 269 272 275 277 277 276 277 278 279 279 279 280 280 279 279 281 282 282 282 281 278 277 277 272 259 245 238 237 239 249 257 263 267 267 265 264 265 268 272 274 276 275 276 276 276 274 273 272 271 270 274 279 282 284 283 281 279 277 275 271 269